owner,sensor,date,latitude,longitude,vertical_datum,sea_water_temperature,qcFlag 
TCOON,ioos:station:TCOON:170:1,2017-11-01T00:30:00Z,27.2970,-97.4049,0.0,23.0,2 
TCOON,ioos:station:TCOON:170:1,2017-11-01T04:30:00Z,27.2970,-97.4049,0.0,22.4,2 
TCOON,ioos:station:TCOON:170:1,2017-11-01T05:30:00Z,27.2970,-97.4049,0.0,22.3,2 
TCOON,ioos:station:TCOON:170:1,2017-11-01T06:30:00Z,27.2970,-97.4049,0.0,22.1,2 
TCOON,ioos:station:TCOON:170:1,2017-11-01T07:30:00Z,27.2970,-97.4049,0.0,22.0,2 
TCOON,ioos:station:TCOON:170:1,2017-11-01T08:30:00Z,27.2970,-97.4049,0.0,21.9,2 
TCOON,ioos:station:TCOON:170:1,2017-11-01T09:30:00Z,27.2970,-97.4049,0.0,21.8,2 
TCOON,ioos:station:TCOON:170:1,2017-11-01T10:30:00Z,27.2970,-97.4049,0.0,21.7,2 
TCOON,ioos:station:TCOON:170:1,2017-11-01T11:30:00Z,27.2970,-97.4049,0.0,21.7,2 
TCOON,ioos:station:TCOON:170:1,2017-11-01T13:30:00Z,27.2970,-97.4049,0.0,21.5,2 
TCOON,ioos:station:TCOON:170:1,2017-11-01T14:30:00Z,27.2970,-97.4049,0.0,21.4,2 
TCOON,ioos:station:TCOON:170:1,2017-11-01T15:30:00Z,27.2970,-97.4049,0.0,21.5,2 
TCOON,ioos:station:TCOON:170:1,2017-11-01T16:30:00Z,27.2970,-97.4049,0.0,21.9,2 
TCOON,ioos:station:TCOON:170:1,2017-11-01T18:30:00Z,27.2970,-97.4049,0.0,22.8,2 
TCOON,ioos:station:TCOON:170:1,2017-11-01T19:30:00Z,27.2970,-97.4049,0.0,23.5,2 
TCOON,ioos:station:TCOON:170:1,2017-11-01T20:30:00Z,27.2970,-97.4049,0.0,24.2,2 
TCOON,ioos:station:TCOON:170:1,2017-11-01T21:30:00Z,27.2970,-97.4049,0.0,23.6,2 
TCOON,ioos:station:TCOON:170:1,2017-11-01T23:30:00Z,27.2970,-97.4049,0.0,23.3,2 
TCOON,ioos:station:TCOON:170:1,2017-11-02T00:30:00Z,27.2970,-97.4049,0.0,24.0,2 
TCOON,ioos:station:TCOON:170:1,2017-11-02T01:30:00Z,27.2970,-97.4049,0.0,24.0,2 
TCOON,ioos:station:TCOON:170:1,2017-11-02T02:30:00Z,27.2970,-97.4049,0.0,23.8,2 
TCOON,ioos:station:TCOON:170:1,2017-11-02T03:30:00Z,27.2970,-97.4049,0.0,23.6,2 
TCOON,ioos:station:TCOON:170:1,2017-11-02T04:30:00Z,27.2970,-97.4049,0.0,23.5,2 
TCOON,ioos:station:TCOON:170:1,2017-11-02T05:30:00Z,27.2970,-97.4049,0.0,23.3,2 
TCOON,ioos:station:TCOON:170:1,2017-11-02T06:30:00Z,27.2970,-97.4049,0.0,23.1,2 
TCOON,ioos:station:TCOON:170:1,2017-11-02T07:30:00Z,27.2970,-97.4049,0.0,22.9,2 
TCOON,ioos:station:TCOON:170:1,2017-11-02T08:30:00Z,27.2970,-97.4049,0.0,22.8,2 
TCOON,ioos:station:TCOON:170:1,2017-11-02T10:30:00Z,27.2970,-97.4049,0.0,22.8,2 
TCOON,ioos:station:TCOON:170:1,2017-11-02T11:30:00Z,27.2970,-97.4049,0.0,22.7,2 
TCOON,ioos:station:TCOON:170:1,2017-11-02T12:30:00Z,27.2970,-97.4049,0.0,22.6,2 
TCOON,ioos:station:TCOON:170:1,2017-11-02T14:30:00Z,27.2970,-97.4049,0.0,22.8,2 
TCOON,ioos:station:TCOON:170:1,2017-11-02T15:30:00Z,27.2970,-97.4049,0.0,23.2,2 
TCOON,ioos:station:TCOON:170:1,2017-11-02T16:30:00Z,27.2970,-97.4049,0.0,23.7,2 
TCOON,ioos:station:TCOON:170:1,2017-11-02T17:30:00Z,27.2970,-97.4049,0.0,24.1,2 
TCOON,ioos:station:TCOON:170:1,2017-11-02T18:30:00Z,27.2970,-97.4049,0.0,24.7,2 
TCOON,ioos:station:TCOON:170:1,2017-11-02T19:30:00Z,27.2970,-97.4049,0.0,25.3,2 
TCOON,ioos:station:TCOON:170:1,2017-11-02T20:30:00Z,27.2970,-97.4049,0.0,26.2,2 
TCOON,ioos:station:TCOON:170:1,2017-11-02T21:30:00Z,27.2970,-97.4049,0.0,26.5,2 
TCOON,ioos:station:TCOON:170:1,2017-11-02T22:30:00Z,27.2970,-97.4049,0.0,26.5,2 
TCOON,ioos:station:TCOON:170:1,2017-11-02T23:30:00Z,27.2970,-97.4049,0.0,26.0,2 
TCOON,ioos:station:TCOON:170:1,2017-11-03T00:30:00Z,27.2970,-97.4049,0.0,25.7,2 
TCOON,ioos:station:TCOON:170:1,2017-11-03T01:30:00Z,27.2970,-97.4049,0.0,25.5,2 
TCOON,ioos:station:TCOON:170:1,2017-11-03T02:30:00Z,27.2970,-97.4049,0.0,25.2,2 
TCOON,ioos:station:TCOON:170:1,2017-11-03T03:30:00Z,27.2970,-97.4049,0.0,25.1,2 
TCOON,ioos:station:TCOON:170:1,2017-11-03T04:30:00Z,27.2970,-97.4049,0.0,24.8,2 
TCOON,ioos:station:TCOON:170:1,2017-11-03T05:30:00Z,27.2970,-97.4049,0.0,24.5,2 
TCOON,ioos:station:TCOON:170:1,2017-11-03T06:30:00Z,27.2970,-97.4049,0.0,24.3,2 
TCOON,ioos:station:TCOON:170:1,2017-11-03T07:30:00Z,27.2970,-97.4049,0.0,24.2,2 
TCOON,ioos:station:TCOON:170:1,2017-11-03T08:30:00Z,27.2970,-97.4049,0.0,24.2,2 
TCOON,ioos:station:TCOON:170:1,2017-11-03T09:30:00Z,27.2970,-97.4049,0.0,24.1,2 
TCOON,ioos:station:TCOON:170:1,2017-11-03T10:30:00Z,27.2970,-97.4049,0.0,24.1,2 
TCOON,ioos:station:TCOON:170:1,2017-11-03T12:30:00Z,27.2970,-97.4049,0.0,24.0,2 
TCOON,ioos:station:TCOON:170:1,2017-11-03T13:30:00Z,27.2970,-97.4049,0.0,24.0,2 
TCOON,ioos:station:TCOON:170:1,2017-11-03T14:30:00Z,27.2970,-97.4049,0.0,24.1,2 
TCOON,ioos:station:TCOON:170:1,2017-11-03T15:30:00Z,27.2970,-97.4049,0.0,24.2,2 
TCOON,ioos:station:TCOON:170:1,2017-11-03T16:30:00Z,27.2970,-97.4049,0.0,24.4,2 
TCOON,ioos:station:TCOON:170:1,2017-11-03T17:30:00Z,27.2970,-97.4049,0.0,24.9,2 
TCOON,ioos:station:TCOON:170:1,2017-11-03T18:30:00Z,27.2970,-97.4049,0.0,25.5,2 
TCOON,ioos:station:TCOON:170:1,2017-11-03T19:30:00Z,27.2970,-97.4049,0.0,26.1,2 
TCOON,ioos:station:TCOON:170:1,2017-11-03T20:30:00Z,27.2970,-97.4049,0.0,26.6,2 
TCOON,ioos:station:TCOON:170:1,2017-11-03T21:30:00Z,27.2970,-97.4049,0.0,27.0,2 
TCOON,ioos:station:TCOON:170:1,2017-11-03T22:30:00Z,27.2970,-97.4049,0.0,27.1,2 
TCOON,ioos:station:TCOON:170:1,2017-11-03T23:30:00Z,27.2970,-97.4049,0.0,27.0,2 
TCOON,ioos:station:TCOON:170:1,2017-11-04T00:30:00Z,27.2970,-97.4049,0.0,26.7,2 
TCOON,ioos:station:TCOON:170:1,2017-11-04T01:30:00Z,27.2970,-97.4049,0.0,26.4,2 
TCOON,ioos:station:TCOON:170:1,2017-11-04T02:30:00Z,27.2970,-97.4049,0.0,26.0,2 
TCOON,ioos:station:TCOON:170:1,2017-11-04T03:30:00Z,27.2970,-97.4049,0.0,25.5,2 
TCOON,ioos:station:TCOON:170:1,2017-11-04T04:30:00Z,27.2970,-97.4049,0.0,25.2,2 
TCOON,ioos:station:TCOON:170:1,2017-11-04T05:30:00Z,27.2970,-97.4049,0.0,25.1,2 
TCOON,ioos:station:TCOON:170:1,2017-11-04T06:30:00Z,27.2970,-97.4049,0.0,24.9,2 
TCOON,ioos:station:TCOON:170:1,2017-11-04T07:30:00Z,27.2970,-97.4049,0.0,24.7,2 
TCOON,ioos:station:TCOON:170:1,2017-11-04T08:30:00Z,27.2970,-97.4049,0.0,24.6,2 
TCOON,ioos:station:TCOON:170:1,2017-11-04T09:30:00Z,27.2970,-97.4049,0.0,24.4,2 
TCOON,ioos:station:TCOON:170:1,2017-11-04T10:30:00Z,27.2970,-97.4049,0.0,24.3,2 
TCOON,ioos:station:TCOON:170:1,2017-11-04T11:30:00Z,27.2970,-97.4049,0.0,24.2,2 
TCOON,ioos:station:TCOON:170:1,2017-11-04T12:30:00Z,27.2970,-97.4049,0.0,24.1,2 
TCOON,ioos:station:TCOON:170:1,2017-11-04T13:30:00Z,27.2970,-97.4049,0.0,24.0,2 
TCOON,ioos:station:TCOON:170:1,2017-11-04T14:30:00Z,27.2970,-97.4049,0.0,24.2,2 
TCOON,ioos:station:TCOON:170:1,2017-11-04T18:30:00Z,27.2970,-97.4049,0.0,26.1,2 
TCOON,ioos:station:TCOON:170:1,2017-11-04T19:30:00Z,27.2970,-97.4049,0.0,26.6,2 
TCOON,ioos:station:TCOON:170:1,2017-11-04T20:30:00Z,27.2970,-97.4049,0.0,26.9,2 
TCOON,ioos:station:TCOON:170:1,2017-11-04T22:30:00Z,27.2970,-97.4049,0.0,27.4,2 
TCOON,ioos:station:TCOON:170:1,2017-11-04T23:30:00Z,27.2970,-97.4049,0.0,27.3,2 
TCOON,ioos:station:TCOON:170:1,2017-11-05T00:30:00Z,27.2970,-97.4049,0.0,26.9,2 
TCOON,ioos:station:TCOON:170:1,2017-11-05T01:30:00Z,27.2970,-97.4049,0.0,26.5,2 
TCOON,ioos:station:TCOON:170:1,2017-11-05T02:30:00Z,27.2970,-97.4049,0.0,26.3,2 
TCOON,ioos:station:TCOON:170:1,2017-11-05T03:30:00Z,27.2970,-97.4049,0.0,26.3,2 
TCOON,ioos:station:TCOON:170:1,2017-11-05T04:30:00Z,27.2970,-97.4049,0.0,26.0,2 
TCOON,ioos:station:TCOON:170:1,2017-11-05T05:30:00Z,27.2970,-97.4049,0.0,25.8,2 
TCOON,ioos:station:TCOON:170:1,2017-11-05T06:30:00Z,27.2970,-97.4049,0.0,25.4,2 
TCOON,ioos:station:TCOON:170:1,2017-11-05T07:30:00Z,27.2970,-97.4049,0.0,25.2,2 
TCOON,ioos:station:TCOON:170:1,2017-11-05T08:30:00Z,27.2970,-97.4049,0.0,24.9,2 
TCOON,ioos:station:TCOON:170:1,2017-11-05T09:30:00Z,27.2970,-97.4049,0.0,24.6,2 
TCOON,ioos:station:TCOON:170:1,2017-11-05T10:30:00Z,27.2970,-97.4049,0.0,24.4,2 
TCOON,ioos:station:TCOON:170:1,2017-11-05T11:30:00Z,27.2970,-97.4049,0.0,24.2,2 
TCOON,ioos:station:TCOON:170:1,2017-11-05T12:30:00Z,27.2970,-97.4049,0.0,24.0,2 
TCOON,ioos:station:TCOON:170:1,2017-11-05T13:30:00Z,27.2970,-97.4049,0.0,24.0,2 
TCOON,ioos:station:TCOON:170:1,2017-11-05T14:30:00Z,27.2970,-97.4049,0.0,24.1,2 
TCOON,ioos:station:TCOON:170:1,2017-11-05T15:30:00Z,27.2970,-97.4049,0.0,24.4,2 
TCOON,ioos:station:TCOON:170:1,2017-11-05T16:30:00Z,27.2970,-97.4049,0.0,25.2,2 
TCOON,ioos:station:TCOON:170:1,2017-11-05T17:30:00Z,27.2970,-97.4049,0.0,25.7,2 
TCOON,ioos:station:TCOON:170:1,2017-11-05T21:30:00Z,27.2970,-97.4049,0.0,28.1,2 
TCOON,ioos:station:TCOON:170:1,2017-11-05T23:30:00Z,27.2970,-97.4049,0.0,27.9,2 
TCOON,ioos:station:TCOON:170:1,2017-11-06T00:30:00Z,27.2970,-97.4049,0.0,27.3,2 
TCOON,ioos:station:TCOON:170:1,2017-11-06T05:30:00Z,27.2970,-97.4049,0.0,25.6,2 
TCOON,ioos:station:TCOON:170:1,2017-11-06T09:30:00Z,27.2970,-97.4049,0.0,24.2,2 
TCOON,ioos:station:TCOON:170:1,2017-11-06T10:30:00Z,27.2970,-97.4049,0.0,24.0,2 
TCOON,ioos:station:TCOON:170:1,2017-11-06T11:30:00Z,27.2970,-97.4049,0.0,23.8,2 
TCOON,ioos:station:TCOON:170:1,2017-11-06T12:30:00Z,27.2970,-97.4049,0.0,23.7,2 
TCOON,ioos:station:TCOON:170:1,2017-11-06T13:30:00Z,27.2970,-97.4049,0.0,23.8,2 
TCOON,ioos:station:TCOON:170:1,2017-11-06T14:30:00Z,27.2970,-97.4049,0.0,24.1,2 
TCOON,ioos:station:TCOON:170:1,2017-11-06T15:30:00Z,27.2970,-97.4049,0.0,24.3,2 
TCOON,ioos:station:TCOON:170:1,2017-11-06T18:30:00Z,27.2970,-97.4049,0.0,26.1,2 
TCOON,ioos:station:TCOON:170:1,2017-11-06T19:30:00Z,27.2970,-97.4049,0.0,27.0,2 
TCOON,ioos:station:TCOON:170:1,2017-11-06T22:30:00Z,27.2970,-97.4049,0.0,27.8,2 
TCOON,ioos:station:TCOON:170:1,2017-11-06T23:30:00Z,27.2970,-97.4049,0.0,27.6,2 
TCOON,ioos:station:TCOON:170:1,2017-11-07T00:30:00Z,27.2970,-97.4049,0.0,27.2,2 
TCOON,ioos:station:TCOON:170:1,2017-11-07T01:30:00Z,27.2970,-97.4049,0.0,26.6,2 
TCOON,ioos:station:TCOON:170:1,2017-11-07T02:30:00Z,27.2970,-97.4049,0.0,26.5,2 
TCOON,ioos:station:TCOON:170:1,2017-11-07T03:30:00Z,27.2970,-97.4049,0.0,26.2,2 
TCOON,ioos:station:TCOON:170:1,2017-11-07T07:30:00Z,27.2970,-97.4049,0.0,24.6,2 
TCOON,ioos:station:TCOON:170:1,2017-11-07T08:30:00Z,27.2970,-97.4049,0.0,24.3,2 
TCOON,ioos:station:TCOON:170:1,2017-11-07T09:30:00Z,27.2970,-97.4049,0.0,24.1,2 
TCOON,ioos:station:TCOON:170:1,2017-11-07T10:30:00Z,27.2970,-97.4049,0.0,24.0,2 
TCOON,ioos:station:TCOON:170:1,2017-11-07T11:30:00Z,27.2970,-97.4049,0.0,24.1,2 
TCOON,ioos:station:TCOON:170:1,2017-11-07T12:30:00Z,27.2970,-97.4049,0.0,24.0,2 
TCOON,ioos:station:TCOON:170:1,2017-11-07T13:30:00Z,27.2970,-97.4049,0.0,24.0,2 
TCOON,ioos:station:TCOON:170:1,2017-11-07T14:30:00Z,27.2970,-97.4049,0.0,24.3,2 
TCOON,ioos:station:TCOON:170:1,2017-11-07T19:00:00Z,27.2970,-97.4049,0.0,26.5,2 
TCOON,ioos:station:TCOON:170:1,2017-11-07T19:30:00Z,27.2970,-97.4049,0.0,26.9,2 
TCOON,ioos:station:TCOON:170:1,2017-11-07T20:30:00Z,27.2970,-97.4049,0.0,27.4,2 
TCOON,ioos:station:TCOON:170:1,2017-11-07T21:30:00Z,27.2970,-97.4049,0.0,27.2,2 
TCOON,ioos:station:TCOON:170:1,2017-11-07T22:42:00Z,27.2970,-97.4049,0.0,27.0,2 
TCOON,ioos:station:TCOON:170:1,2017-11-07T23:30:00Z,27.2970,-97.4049,0.0,26.8,2 
TCOON,ioos:station:TCOON:170:1,2017-11-08T00:30:00Z,27.2970,-97.4049,0.0,26.7,2 
TCOON,ioos:station:TCOON:170:1,2017-11-08T01:30:00Z,27.2970,-97.4049,0.0,26.8,2 
TCOON,ioos:station:TCOON:170:1,2017-11-08T02:30:00Z,27.2970,-97.4049,0.0,26.5,2 
TCOON,ioos:station:TCOON:170:1,2017-11-08T04:12:00Z,27.2970,-97.4049,0.0,26.1,2 
TCOON,ioos:station:TCOON:170:1,2017-11-08T05:30:00Z,27.2970,-97.4049,0.0,25.7,2 
TCOON,ioos:station:TCOON:170:1,2017-11-08T09:30:00Z,27.2970,-97.4049,0.0,25.5,2 
TCOON,ioos:station:TCOON:170:1,2017-11-08T10:30:00Z,27.2970,-97.4049,0.0,25.2,2 
TCOON,ioos:station:TCOON:170:1,2017-11-08T11:30:00Z,27.2970,-97.4049,0.0,24.5,2 
TCOON,ioos:station:TCOON:170:1,2017-11-08T12:30:00Z,27.2970,-97.4049,0.0,24.2,2 
TCOON,ioos:station:TCOON:170:1,2017-11-08T13:30:00Z,27.2970,-97.4049,0.0,24.0,2 
TCOON,ioos:station:TCOON:170:1,2017-11-08T14:30:00Z,27.2970,-97.4049,0.0,23.7,2 
TCOON,ioos:station:TCOON:170:1,2017-11-08T15:30:00Z,27.2970,-97.4049,0.0,23.4,2 
TCOON,ioos:station:TCOON:170:1,2017-11-08T16:30:00Z,27.2970,-97.4049,0.0,23.3,2 
TCOON,ioos:station:TCOON:170:1,2017-11-08T18:30:00Z,27.2970,-97.4049,0.0,22.8,2 
TCOON,ioos:station:TCOON:170:1,2017-11-08T19:30:00Z,27.2970,-97.4049,0.0,22.4,2 
TCOON,ioos:station:TCOON:170:1,2017-11-08T20:30:00Z,27.2970,-97.4049,0.0,22.3,2 
TCOON,ioos:station:TCOON:170:1,2017-11-08T22:30:00Z,27.2970,-97.4049,0.0,21.9,2 
TCOON,ioos:station:TCOON:170:1,2017-11-08T23:30:00Z,27.2970,-97.4049,0.0,21.6,2 
TCOON,ioos:station:TCOON:170:1,2017-11-09T00:30:00Z,27.2970,-97.4049,0.0,21.4,2 
TCOON,ioos:station:TCOON:170:1,2017-11-09T01:30:00Z,27.2970,-97.4049,0.0,21.1,2 
TCOON,ioos:station:TCOON:170:1,2017-11-09T02:30:00Z,27.2970,-97.4049,0.0,20.8,2 
TCOON,ioos:station:TCOON:170:1,2017-11-09T03:30:00Z,27.2970,-97.4049,0.0,20.8,2 
TCOON,ioos:station:TCOON:170:1,2017-11-09T04:30:00Z,27.2970,-97.4049,0.0,20.5,2 
TCOON,ioos:station:TCOON:170:1,2017-11-09T05:30:00Z,27.2970,-97.4049,0.0,20.1,2 
TCOON,ioos:station:TCOON:170:1,2017-11-09T06:30:00Z,27.2970,-97.4049,0.0,19.9,2 
TCOON,ioos:station:TCOON:170:1,2017-11-09T07:30:00Z,27.2970,-97.4049,0.0,19.7,2 
TCOON,ioos:station:TCOON:170:1,2017-11-09T08:30:00Z,27.2970,-97.4049,0.0,19.6,2 
TCOON,ioos:station:TCOON:170:1,2017-11-09T09:30:00Z,27.2970,-97.4049,0.0,19.3,2 
TCOON,ioos:station:TCOON:170:1,2017-11-09T10:30:00Z,27.2970,-97.4049,0.0,19.1,2 
TCOON,ioos:station:TCOON:170:1,2017-11-09T11:30:00Z,27.2970,-97.4049,0.0,19.0,2 
TCOON,ioos:station:TCOON:170:1,2017-11-09T12:30:00Z,27.2970,-97.4049,0.0,18.8,2 
TCOON,ioos:station:TCOON:170:1,2017-11-09T13:30:00Z,27.2970,-97.4049,0.0,18.6,2 
TCOON,ioos:station:TCOON:170:1,2017-11-09T14:30:00Z,27.2970,-97.4049,0.0,18.6,2 
TCOON,ioos:station:TCOON:170:1,2017-11-09T15:30:00Z,27.2970,-97.4049,0.0,18.3,2 
TCOON,ioos:station:TCOON:170:1,2017-11-09T16:30:00Z,27.2970,-97.4049,0.0,18.2,2 
TCOON,ioos:station:TCOON:170:1,2017-11-09T17:30:00Z,27.2970,-97.4049,0.0,18.2,2 
TCOON,ioos:station:TCOON:170:1,2017-11-09T19:30:00Z,27.2970,-97.4049,0.0,18.5,2 
TCOON,ioos:station:TCOON:170:1,2017-11-09T21:30:00Z,27.2970,-97.4049,0.0,18.4,2 
TCOON,ioos:station:TCOON:170:1,2017-11-09T22:30:00Z,27.2970,-97.4049,0.0,18.2,2 
TCOON,ioos:station:TCOON:170:1,2017-11-10T01:30:00Z,27.2970,-97.4049,0.0,18.1,2 
TCOON,ioos:station:TCOON:170:1,2017-11-10T02:30:00Z,27.2970,-97.4049,0.0,17.9,2 
TCOON,ioos:station:TCOON:170:1,2017-11-10T03:30:00Z,27.2970,-97.4049,0.0,17.9,2 
TCOON,ioos:station:TCOON:170:1,2017-11-10T04:30:00Z,27.2970,-97.4049,0.0,17.8,2 
TCOON,ioos:station:TCOON:170:1,2017-11-10T05:30:00Z,27.2970,-97.4049,0.0,17.7,2 
TCOON,ioos:station:TCOON:170:1,2017-11-10T06:30:00Z,27.2970,-97.4049,0.0,17.7,2 
TCOON,ioos:station:TCOON:170:1,2017-11-10T07:30:00Z,27.2970,-97.4049,0.0,17.5,2 
TCOON,ioos:station:TCOON:170:1,2017-11-10T08:30:00Z,27.2970,-97.4049,0.0,17.4,2 
TCOON,ioos:station:TCOON:170:1,2017-11-10T09:30:00Z,27.2970,-97.4049,0.0,17.3,2 
TCOON,ioos:station:TCOON:170:1,2017-11-10T10:30:00Z,27.2970,-97.4049,0.0,17.1,2 
TCOON,ioos:station:TCOON:170:1,2017-11-10T12:30:00Z,27.2970,-97.4049,0.0,16.9,2 
TCOON,ioos:station:TCOON:170:1,2017-11-10T13:30:00Z,27.2970,-97.4049,0.0,16.9,2 
TCOON,ioos:station:TCOON:170:1,2017-11-10T15:30:00Z,27.2970,-97.4049,0.0,16.9,2 
TCOON,ioos:station:TCOON:170:1,2017-11-10T16:30:00Z,27.2970,-97.4049,0.0,16.9,2 
TCOON,ioos:station:TCOON:170:1,2017-11-10T17:30:00Z,27.2970,-97.4049,0.0,17.1,2 
TCOON,ioos:station:TCOON:170:1,2017-11-10T18:30:00Z,27.2970,-97.4049,0.0,17.3,2 
TCOON,ioos:station:TCOON:170:1,2017-11-10T19:30:00Z,27.2970,-97.4049,0.0,17.6,2 
TCOON,ioos:station:TCOON:170:1,2017-11-10T20:30:00Z,27.2970,-97.4049,0.0,17.9,2 
TCOON,ioos:station:TCOON:170:1,2017-11-10T21:30:00Z,27.2970,-97.4049,0.0,18.3,2 
TCOON,ioos:station:TCOON:170:1,2017-11-11T00:30:00Z,27.2970,-97.4049,0.0,18.5,2 
TCOON,ioos:station:TCOON:170:1,2017-11-11T01:30:00Z,27.2970,-97.4049,0.0,18.4,2 
TCOON,ioos:station:TCOON:170:1,2017-11-11T02:30:00Z,27.2970,-97.4049,0.0,18.3,2 
TCOON,ioos:station:TCOON:170:1,2017-11-11T03:30:00Z,27.2970,-97.4049,0.0,18.5,2 
TCOON,ioos:station:TCOON:170:1,2017-11-11T04:30:00Z,27.2970,-97.4049,0.0,18.4,2 
TCOON,ioos:station:TCOON:170:1,2017-11-11T05:30:00Z,27.2970,-97.4049,0.0,18.5,2 
TCOON,ioos:station:TCOON:170:1,2017-11-11T06:30:00Z,27.2970,-97.4049,0.0,18.5,2 
TCOON,ioos:station:TCOON:170:1,2017-11-11T07:30:00Z,27.2970,-97.4049,0.0,18.6,2 
TCOON,ioos:station:TCOON:170:1,2017-11-11T08:30:00Z,27.2970,-97.4049,0.0,18.7,2 
TCOON,ioos:station:TCOON:170:1,2017-11-11T09:30:00Z,27.2970,-97.4049,0.0,18.7,2 
TCOON,ioos:station:TCOON:170:1,2017-11-11T10:30:00Z,27.2970,-97.4049,0.0,18.7,2 
TCOON,ioos:station:TCOON:170:1,2017-11-11T11:30:00Z,27.2970,-97.4049,0.0,18.8,2 
TCOON,ioos:station:TCOON:170:1,2017-11-11T12:30:00Z,27.2970,-97.4049,0.0,18.8,2 
TCOON,ioos:station:TCOON:170:1,2017-11-11T13:30:00Z,27.2970,-97.4049,0.0,18.9,2 
TCOON,ioos:station:TCOON:170:1,2017-11-11T14:30:00Z,27.2970,-97.4049,0.0,19.0,2 
TCOON,ioos:station:TCOON:170:1,2017-11-11T15:30:00Z,27.2970,-97.4049,0.0,19.1,2 
TCOON,ioos:station:TCOON:170:1,2017-11-11T16:30:00Z,27.2970,-97.4049,0.0,19.5,2 
TCOON,ioos:station:TCOON:170:1,2017-11-11T17:30:00Z,27.2970,-97.4049,0.0,19.5,2 
TCOON,ioos:station:TCOON:170:1,2017-11-11T19:30:00Z,27.2970,-97.4049,0.0,20.4,2 
TCOON,ioos:station:TCOON:170:1,2017-11-11T20:30:00Z,27.2970,-97.4049,0.0,20.7,2 
TCOON,ioos:station:TCOON:170:1,2017-11-11T21:30:00Z,27.2970,-97.4049,0.0,20.7,2 
TCOON,ioos:station:TCOON:170:1,2017-11-11T22:30:00Z,27.2970,-97.4049,0.0,20.5,2 
TCOON,ioos:station:TCOON:170:1,2017-11-11T23:30:00Z,27.2970,-97.4049,0.0,20.9,2 
TCOON,ioos:station:TCOON:170:1,2017-11-12T00:30:00Z,27.2970,-97.4049,0.0,20.8,2 
TCOON,ioos:station:TCOON:170:1,2017-11-12T01:30:00Z,27.2970,-97.4049,0.0,20.7,2 
TCOON,ioos:station:TCOON:170:1,2017-11-12T02:30:00Z,27.2970,-97.4049,0.0,20.5,2 
TCOON,ioos:station:TCOON:170:1,2017-11-12T03:30:00Z,27.2970,-97.4049,0.0,20.3,2 
TCOON,ioos:station:TCOON:170:1,2017-11-12T04:30:00Z,27.2970,-97.4049,0.0,20.2,2 
TCOON,ioos:station:TCOON:170:1,2017-11-12T16:30:00Z,27.2970,-97.4049,0.0,20.2,2 
TCOON,ioos:station:TCOON:170:1,2017-11-12T17:30:00Z,27.2970,-97.4049,0.0,20.4,2 
TCOON,ioos:station:TCOON:170:1,2017-11-12T18:30:00Z,27.2970,-97.4049,0.0,21.2,2 
TCOON,ioos:station:TCOON:170:1,2017-11-12T19:30:00Z,27.2970,-97.4049,0.0,21.9,2 
TCOON,ioos:station:TCOON:170:1,2017-11-12T20:30:00Z,27.2970,-97.4049,0.0,22.3,2 
TCOON,ioos:station:TCOON:170:1,2017-11-12T21:30:00Z,27.2970,-97.4049,0.0,23.1,2 
TCOON,ioos:station:TCOON:170:1,2017-11-12T22:30:00Z,27.2970,-97.4049,0.0,23.3,2 
TCOON,ioos:station:TCOON:170:1,2017-11-12T23:30:00Z,27.2970,-97.4049,0.0,22.9,2 
TCOON,ioos:station:TCOON:170:1,2017-11-13T00:30:00Z,27.2970,-97.4049,0.0,23.0,2 
TCOON,ioos:station:TCOON:170:1,2017-11-13T01:30:00Z,27.2970,-97.4049,0.0,22.8,2 
TCOON,ioos:station:TCOON:170:1,2017-11-13T03:30:00Z,27.2970,-97.4049,0.0,22.5,2 
TCOON,ioos:station:TCOON:170:1,2017-11-13T04:30:00Z,27.2970,-97.4049,0.0,21.6,2 
TCOON,ioos:station:TCOON:170:1,2017-11-13T05:30:00Z,27.2970,-97.4049,0.0,21.6,2 
TCOON,ioos:station:TCOON:170:1,2017-11-13T07:30:00Z,27.2970,-97.4049,0.0,21.9,2 
TCOON,ioos:station:TCOON:170:1,2017-11-13T09:30:00Z,27.2970,-97.4049,0.0,21.8,2 
TCOON,ioos:station:TCOON:170:1,2017-11-13T10:30:00Z,27.2970,-97.4049,0.0,21.8,2 
TCOON,ioos:station:TCOON:170:1,2017-11-13T11:30:00Z,27.2970,-97.4049,0.0,21.8,2 
TCOON,ioos:station:TCOON:170:1,2017-11-13T12:30:00Z,27.2970,-97.4049,0.0,21.5,2 
TCOON,ioos:station:TCOON:170:1,2017-11-13T13:30:00Z,27.2970,-97.4049,0.0,21.4,2 
TCOON,ioos:station:TCOON:170:1,2017-11-13T14:30:00Z,27.2970,-97.4049,0.0,21.4,2 
TCOON,ioos:station:TCOON:170:1,2017-11-13T15:30:00Z,27.2970,-97.4049,0.0,21.7,2 
TCOON,ioos:station:TCOON:170:1,2017-11-13T16:30:00Z,27.2970,-97.4049,0.0,21.7,2 
TCOON,ioos:station:TCOON:170:1,2017-11-13T17:30:00Z,27.2970,-97.4049,0.0,21.9,2 
TCOON,ioos:station:TCOON:170:1,2017-11-13T18:30:00Z,27.2970,-97.4049,0.0,22.4,2 
TCOON,ioos:station:TCOON:170:1,2017-11-13T19:30:00Z,27.2970,-97.4049,0.0,22.6,2 
TCOON,ioos:station:TCOON:170:1,2017-11-13T20:30:00Z,27.2970,-97.4049,0.0,23.1,2 
TCOON,ioos:station:TCOON:170:1,2017-11-13T21:30:00Z,27.2970,-97.4049,0.0,23.3,2 
TCOON,ioos:station:TCOON:170:1,2017-11-13T22:30:00Z,27.2970,-97.4049,0.0,23.5,2 
TCOON,ioos:station:TCOON:170:1,2017-11-14T00:00:00Z,27.2970,-97.4049,0.0,23.5,2 
TCOON,ioos:station:TCOON:170:1,2017-11-14T00:30:00Z,27.2970,-97.4049,0.0,23.4,2 
TCOON,ioos:station:TCOON:170:1,2017-11-14T01:30:00Z,27.2970,-97.4049,0.0,23.3,2 
TCOON,ioos:station:TCOON:170:1,2017-11-14T02:30:00Z,27.2970,-97.4049,0.0,23.1,2 
TCOON,ioos:station:TCOON:170:1,2017-11-14T03:30:00Z,27.2970,-97.4049,0.0,22.9,2 
TCOON,ioos:station:TCOON:170:1,2017-11-14T04:30:00Z,27.2970,-97.4049,0.0,22.8,2 
TCOON,ioos:station:TCOON:170:1,2017-11-14T09:30:00Z,27.2970,-97.4049,0.0,22.4,2 
TCOON,ioos:station:TCOON:170:1,2017-11-14T14:30:00Z,27.2970,-97.4049,0.0,22.2,2 
TCOON,ioos:station:TCOON:170:1,2017-11-14T15:30:00Z,27.2970,-97.4049,0.0,22.3,2 
TCOON,ioos:station:TCOON:170:1,2017-11-14T16:30:00Z,27.2970,-97.4049,0.0,22.6,2 
TCOON,ioos:station:TCOON:170:1,2017-11-14T17:30:00Z,27.2970,-97.4049,0.0,23.0,2 
TCOON,ioos:station:TCOON:170:1,2017-11-14T18:30:00Z,27.2970,-97.4049,0.0,23.1,2 
TCOON,ioos:station:TCOON:170:1,2017-11-14T19:30:00Z,27.2970,-97.4049,0.0,23.3,2 
TCOON,ioos:station:TCOON:170:1,2017-11-14T20:30:00Z,27.2970,-97.4049,0.0,23.6,2 
TCOON,ioos:station:TCOON:170:1,2017-11-14T21:30:00Z,27.2970,-97.4049,0.0,23.9,2 
TCOON,ioos:station:TCOON:170:1,2017-11-14T22:30:00Z,27.2970,-97.4049,0.0,24.1,2 
TCOON,ioos:station:TCOON:170:1,2017-11-14T23:30:00Z,27.2970,-97.4049,0.0,23.9,2 
TCOON,ioos:station:TCOON:170:1,2017-11-15T06:30:00Z,27.2970,-97.4049,0.0,23.2,2 
TCOON,ioos:station:TCOON:170:1,2017-11-15T13:30:00Z,27.2970,-97.4049,0.0,22.6,2 
TCOON,ioos:station:TCOON:170:1,2017-11-15T17:30:00Z,27.2970,-97.4049,0.0,23.8,2 
TCOON,ioos:station:TCOON:170:1,2017-11-15T18:30:00Z,27.2970,-97.4049,0.0,24.4,2 
TCOON,ioos:station:TCOON:170:1,2017-11-15T19:30:00Z,27.2970,-97.4049,0.0,24.9,2 
TCOON,ioos:station:TCOON:170:1,2017-11-15T20:30:00Z,27.2970,-97.4049,0.0,25.0,2 
TCOON,ioos:station:TCOON:170:1,2017-11-15T21:30:00Z,27.2970,-97.4049,0.0,24.9,2 
TCOON,ioos:station:TCOON:170:1,2017-11-15T22:30:00Z,27.2970,-97.4049,0.0,24.8,2 
TCOON,ioos:station:TCOON:170:1,2017-11-15T23:30:00Z,27.2970,-97.4049,0.0,24.6,2 
TCOON,ioos:station:TCOON:170:1,2017-11-16T00:30:00Z,27.2970,-97.4049,0.0,24.4,2 
TCOON,ioos:station:TCOON:170:1,2017-11-16T01:30:00Z,27.2970,-97.4049,0.0,24.2,2 
TCOON,ioos:station:TCOON:170:1,2017-11-16T02:30:00Z,27.2970,-97.4049,0.0,24.1,2 
TCOON,ioos:station:TCOON:170:1,2017-11-16T03:30:00Z,27.2970,-97.4049,0.0,24.1,2 
TCOON,ioos:station:TCOON:170:1,2017-11-16T04:30:00Z,27.2970,-97.4049,0.0,23.9,2 
TCOON,ioos:station:TCOON:170:1,2017-11-16T05:30:00Z,27.2970,-97.4049,0.0,23.8,2 
TCOON,ioos:station:TCOON:170:1,2017-11-16T06:30:00Z,27.2970,-97.4049,0.0,23.7,2 
TCOON,ioos:station:TCOON:170:1,2017-11-16T07:30:00Z,27.2970,-97.4049,0.0,23.7,2 
TCOON,ioos:station:TCOON:170:1,2017-11-16T08:30:00Z,27.2970,-97.4049,0.0,23.6,2 
TCOON,ioos:station:TCOON:170:1,2017-11-16T09:30:00Z,27.2970,-97.4049,0.0,23.6,2 
TCOON,ioos:station:TCOON:170:1,2017-11-16T10:30:00Z,27.2970,-97.4049,0.0,23.5,2 
TCOON,ioos:station:TCOON:170:1,2017-11-16T11:30:00Z,27.2970,-97.4049,0.0,23.5,2 
TCOON,ioos:station:TCOON:170:1,2017-11-16T12:30:00Z,27.2970,-97.4049,0.0,23.4,2 
TCOON,ioos:station:TCOON:170:1,2017-11-16T13:30:00Z,27.2970,-97.4049,0.0,23.4,2 
TCOON,ioos:station:TCOON:170:1,2017-11-16T14:30:00Z,27.2970,-97.4049,0.0,23.4,2 
TCOON,ioos:station:TCOON:170:1,2017-11-16T15:30:00Z,27.2970,-97.4049,0.0,23.6,2 
TCOON,ioos:station:TCOON:170:1,2017-11-16T16:30:00Z,27.2970,-97.4049,0.0,23.8,2 
TCOON,ioos:station:TCOON:170:1,2017-11-16T17:30:00Z,27.2970,-97.4049,0.0,24.2,2 
TCOON,ioos:station:TCOON:170:1,2017-11-16T18:30:00Z,27.2970,-97.4049,0.0,24.7,2 
TCOON,ioos:station:TCOON:170:1,2017-11-16T19:30:00Z,27.2970,-97.4049,0.0,25.2,2 
TCOON,ioos:station:TCOON:170:1,2017-11-16T20:30:00Z,27.2970,-97.4049,0.0,25.7,2 